SB KEPS @ AMSAT $ORB13360.O Orbital Elements 13360.OSCAR
HR AMSAT ORBITAL ELEMENTS FOR OSCAR SATELLITES FROM WA5QGD FORT WORTH,TX December 26, 2013 BID: ORB13360.O TO ALL RADIO AMATEURS BT
Satellite: AO-07 Catalog number: 07530 Epoch time: 13359.87980816 Element set: 856 Inclination: 101.4523 deg RA of node: 342.5618 deg Eccentricity: 0.0011612 Arg of perigee: 273.8461 deg Mean anomaly: 147.9583 deg Mean motion: 12.53600933 rev/day Decay rate: -3.4e-07 rev/day^2 Epoch rev: 78980 Checksum: 316
Satellite: FO-29 Catalog number: 24278 Epoch time: 13360.71627889 Element set: 273 Inclination: 098.5288 deg RA of node: 033.2738 deg Eccentricity: 0.0350772 Arg of perigee: 025.2644 deg Mean anomaly: 108.2078 deg Mean motion: 13.53011685 rev/day Decay rate: 4.2e-07 rev/day^2 Epoch rev: 85734 Checksum: 323
Satellite: SO-33 Catalog number: 25509 Epoch time: 13360.49791748 Element set: 656 Inclination: 031.4325 deg RA of node: 058.6418 deg Eccentricity: 0.0350460 Arg of perigee: 041.7562 deg Mean anomaly: 078.7936 deg Mean motion: 14.29272739 rev/day Decay rate: 2.88e-06 rev/day^2 Epoch rev: 79242 Checksum: 337
Satellite: RS-22 Catalog number: 27939 Epoch time: 13360.56984810 Element set: 71 Inclination: 097.7968 deg RA of node: 178.4385 deg Eccentricity: 0.0012531 Arg of perigee: 299.6441 deg Mean anomaly: 060.3511 deg Mean motion: 14.64768525 rev/day Decay rate: 8.94e-06 rev/day^2 Epoch rev: 54745 Checksum: 345
Satellite: VO-52 Catalog number: 28650 Epoch time: 13360.88552178 Element set: 616 Inclination: 097.5615 deg RA of node: 009.5823 deg Eccentricity: 0.0025498 Arg of perigee: 009.7033 deg Mean anomaly: 109.3238 deg Mean motion: 14.84536423 rev/day Decay rate: 1.830e-05 rev/day^2 Epoch rev: 46766 Checksum: 324
Satellite: HO-68 Catalog number: 36122 Epoch time: 13360.72724152 Element set: 181 Inclination: 100.2787 deg RA of node: 052.6761 deg Eccentricity: 0.0007252 Arg of perigee: 272.7808 deg Mean anomaly: 087.2472 deg Mean motion: 13.16310287 rev/day Decay rate: -4.4e-07 rev/day^2 Epoch rev: 19374 Checksum: 289
Satellite: AO-73 Catalog number: 39445 Epoch time: 13360.16162213 Element set: 20 Inclination: 097.7957 deg RA of node: 071.6604 deg Eccentricity: 0.0064976 Arg of perigee: 084.4775 deg Mean anomaly: 276.3665 deg Mean motion: 14.77291461 rev/day Decay rate: 2.454e-05 rev/day^2 Epoch rev: 348 Checksum: 323
/EX SB KEPS @ AMSAT $ORB13360.D Orbital Elements 13360.MICROS
HR AMSAT ORBITAL ELEMENTS FOR THE MICROSATS FROM WA5QGD FORT WORTH,TX December 26, 2013 BID: ORB13360.D TO ALL RADIO AMATEURS BT
Satellite: UO-11 Catalog number: 14781 Epoch time: 13359.78055812 Element set: 372 Inclination: 097.8781 deg RA of node: 058.1058 deg Eccentricity: 0.0009162 Arg of perigee: 034.9780 deg Mean anomaly: 325.2032 deg Mean motion: 14.81202116 rev/day Decay rate: 7.16e-06 rev/day^2 Epoch rev: 60229 Checksum: 294
Satellite: AO-16 Catalog number: 20439 Epoch time: 13360.06471215 Element set: 915 Inclination: 098.4924 deg RA of node: 295.8157 deg Eccentricity: 0.0009895 Arg of perigee: 315.1756 deg Mean anomaly: 106.5942 deg Mean motion: 14.32256746 rev/day Decay rate: 1.40e-06 rev/day^2 Epoch rev: 24970 Checksum: 315
Satellite: LO-19 Catalog number: 20442 Epoch time: 13359.50445247 Element set: 853 Inclination: 098.4624 deg RA of node: 296.4525 deg Eccentricity: 0.0010749 Arg of perigee: 305.4027 deg Mean anomaly: 054.6153 deg Mean motion: 14.32463244 rev/day Decay rate: 1.29e-06 rev/day^2 Epoch rev: 24981 Checksum: 301
Satellite: AO-27 Catalog number: 22825 Epoch time: 13360.81510904 Element set: 558 Inclination: 098.6430 deg RA of node: 303.0152 deg Eccentricity: 0.0009527 Arg of perigee: 085.6114 deg Mean anomaly: 326.9940 deg Mean motion: 14.29633711 rev/day Decay rate: 1.01e-06 rev/day^2 Epoch rev: 5615 Checksum: 278
Satellite: IO-26 Catalog number: 22826 Epoch time: 13360.44292384 Element set: 315 Inclination: 098.6371 deg RA of node: 302.8950 deg Eccentricity: 0.0010029 Arg of perigee: 080.2055 deg Mean anomaly: 058.1477 deg Mean motion: 14.29925050 rev/day Decay rate: 1.07e-06 rev/day^2 Epoch rev: 5623 Checksum: 282
Satellite: GO-32 Catalog number: 25397 Epoch time: 13360.53042875 Element set: 238 Inclination: 098.4445 deg RA of node: 320.1968 deg Eccentricity: 0.0002455 Arg of perigee: 098.6185 deg Mean anomaly: 012.9012 deg Mean motion: 14.23388556 rev/day Decay rate: 6.2e-07 rev/day^2 Epoch rev: 80330 Checksum: 300
Satellite: NO-44 Catalog number: 26931 Epoch time: 13360.50910890 Element set: 498 Inclination: 067.0524 deg RA of node: 123.7012 deg Eccentricity: 0.0006121 Arg of perigee: 264.1922 deg Mean anomaly: 095.8481 deg Mean motion: 14.30012147 rev/day Decay rate: 1.28e-06 rev/day^2 Epoch rev: 63891 Checksum: 277
Satellite: SO-50 Catalog number: 27607 Epoch time: 13359.64283561 Element set: 256 Inclination: 064.5573 deg RA of node: 041.1647 deg Eccentricity: 0.0032196 Arg of perigee: 080.6900 deg Mean anomaly: 059.7536 deg Mean motion: 14.73292287 rev/day Decay rate: 6.89e-06 rev/day^2 Epoch rev: 59191 Checksum: 331
Satellite: CO-55 Catalog number: 27844 Epoch time: 13360.48039294 Element set: 817 Inclination: 098.6998 deg RA of node: 006.7534 deg Eccentricity: 0.0010442 Arg of perigee: 058.9000 deg Mean anomaly: 096.5459 deg Mean motion: 14.21347838 rev/day Decay rate: 2.67e-06 rev/day^2 Epoch rev: 54404 Checksum: 331
Satellite: CO-57 Catalog number: 27848 Epoch time: 13360.00090859 Element set: 758 Inclination: 098.7088 deg RA of node: 005.8969 deg Eccentricity: 0.0010457 Arg of perigee: 066.0541 deg Mean anomaly: 321.1435 deg Mean motion: 14.21055861 rev/day Decay rate: 2.48e-06 rev/day^2 Epoch rev: 54390 Checksum: 318
Satellite: AO-51 Catalog number: 28375 Epoch time: 13360.84340661 Element set: 733 Inclination: 098.2298 deg RA of node: 308.8439 deg Eccentricity: 0.0084109 Arg of perigee: 152.7280 deg Mean anomaly: 261.1208 deg Mean motion: 14.41236948 rev/day Decay rate: 1.53e-06 rev/day^2 Epoch rev: 49908 Checksum: 320
Satellite: CP3 Catalog number: 31129 Epoch time: 13360.89404153 Element set: 633 Inclination: 097.9156 deg RA of node: 342.8679 deg Eccentricity: 0.0099466 Arg of perigee: 186.7358 deg Mean anomaly: 229.1798 deg Mean motion: 14.54100472 rev/day Decay rate: 6.61e-06 rev/day^2 Epoch rev: 35499 Checksum: 344
Satellite: CO-65 Catalog number: 32785 Epoch time: 13360.46765395 Element set: 825 Inclination: 097.7258 deg RA of node: 052.2960 deg Eccentricity: 0.0014700 Arg of perigee: 042.1661 deg Mean anomaly: 082.8583 deg Mean motion: 14.84494933 rev/day Decay rate: 1.415e-05 rev/day^2 Epoch rev: 30639 Checksum: 327
Satellite: PRISM Catalog number: 33493 Epoch time: 13360.78638854 Element set: 493 Inclination: 098.2339 deg RA of node: 164.4967 deg Eccentricity: 0.0016811 Arg of perigee: 287.4370 deg Mean anomaly: 072.4976 deg Mean motion: 14.87416278 rev/day Decay rate: 4.991e-05 rev/day^2 Epoch rev: 26653 Checksum: 355
Satellite: SOHLA-1 Catalog number: 33496 Epoch time: 13360.18032531 Element set: 232 Inclination: 098.1519 deg RA of node: 115.9418 deg Eccentricity: 0.0007640 Arg of perigee: 078.2475 deg Mean anomaly: 039.8997 deg Mean motion: 14.70513410 rev/day Decay rate: 4.65e-06 rev/day^2 Epoch rev: 26408 Checksum: 297
Satellite: TISAT-1 Catalog number: 36799 Epoch time: 13360.79153887 Element set: 757 Inclination: 098.0260 deg RA of node: 086.6403 deg Eccentricity: 0.0014564 Arg of perigee: 158.1864 deg Mean anomaly: 201.9886 deg Mean motion: 14.84301966 rev/day Decay rate: 3.381e-05 rev/day^2 Epoch rev: 18713 Checksum: 340
Satellite: STUDSAT Catalog number: 36801 Epoch time: 13358.88198270 Element set: 738 Inclination: 098.0392 deg RA of node: 089.9109 deg Eccentricity: 0.0011400 Arg of perigee: 142.2940 deg Mean anomaly: 284.8189 deg Mean motion: 14.91530948 rev/day Decay rate: 1.1926e-04 rev/day^2 Epoch rev: 18710 Checksum: 321
Satellite: ALMASAT-1 Catalog number: 38078 Epoch time: 13360.51678110 Element set: 885 Inclination: 069.4762 deg RA of node: 111.2753 deg Eccentricity: 0.0655118 Arg of perigee: 259.0278 deg Mean anomaly: 093.6555 deg Mean motion: 14.35797879 rev/day Decay rate: 3.0934e-04 rev/day^2 Epoch rev: 9673 Checksum: 348
Satellite: XATCOBEO Catalog number: 38082 Epoch time: 13360.67336803 Element set: 799 Inclination: 069.4685 deg RA of node: 057.5962 deg Eccentricity: 0.0446446 Arg of perigee: 230.0984 deg Mean anomaly: 126.0085 deg Mean motion: 14.89281157 rev/day Decay rate: 1.34060e-03 rev/day^2 Epoch rev: 9821 Checksum: 329
Satellite: CUBEBUG-1 Catalog number: 39153 Epoch time: 13360.78293794 Element set: 705 Inclination: 098.0592 deg RA of node: 076.4089 deg Eccentricity: 0.0017926 Arg of perigee: 181.1323 deg Mean anomaly: 178.9829 deg Mean motion: 14.76959271 rev/day Decay rate: 1.888e-05 rev/day^2 Epoch rev: 3610 Checksum: 346
Satellite: ESTCUBE-1 Catalog number: 39161 Epoch time: 13360.70467637 Element set: 677 Inclination: 098.1144 deg RA of node: 077.8354 deg Eccentricity: 0.0009418 Arg of perigee: 215.9848 deg Mean anomaly: 144.0661 deg Mean motion: 14.69402172 rev/day Decay rate: 1.478e-05 rev/day^2 Epoch rev: 3426 Checksum: 316
/EX SB KEPS @ AMSAT $ORB13360.W Orbital Elements 13360.WEATHER
HR AMSAT ORBITAL ELEMENTS FOR WEATHER SATELLITES FROM WA5QGD FORT WORTH,TX December 26, 2013 BID: ORB13360.W TO ALL RADIO AMATEURS BT
Satellite: NOAA-10 Catalog number: 16969 Epoch time: 13360.51121428 Element set: 617 Inclination: 098.5286 deg RA of node: 023.9894 deg Eccentricity: 0.0012732 Arg of perigee: 046.5160 deg Mean anomaly: 074.8951 deg Mean motion: 14.27698244 rev/day Decay rate: 1.07e-06 rev/day^2 Epoch rev: 41938 Checksum: 317
Satellite: NOAA-11 Catalog number: 19531 Epoch time: 13360.20366445 Element set: 641 Inclination: 098.6972 deg RA of node: 078.5872 deg Eccentricity: 0.0012185 Arg of perigee: 076.1368 deg Mean anomaly: 284.1160 deg Mean motion: 14.15046983 rev/day Decay rate: 9.3e-07 rev/day^2 Epoch rev: 30327 Checksum: 302
